Home > Weather > Melbourne > Past weeks

Flag for Australia Weather for the Past 2 Weeks in Melbourne, Victoria, Australia

Now
72 °F

Partly sunny.


Feels Like: 77 °F
Forecast: 61 / 78 °F
Wind: 10 mph from South

Location: Melbourne Airport

Current Time: Feb 8, 2016 at 1:49:46 PM

Latest Report: Feb 8, 2016 at 1:00 PM


Visibility: N/A

Pressure: 30.18 "Hg

Humidity: 53%

Dew point: 54 °F

Location of MelbourneLocation

Historic Weather in Melbourne — Graph

°F

Melbourne Temperature Yesterday

Maximum temperature yesterday: 88 °F (at 2:00 PM)
Minimum temperature yesterday: 63 °F (at 6:00 AM)
Average temperature yesterday: 74 °F

High & Low Weather Summary for the Past Weeks

 TemperatureHumidityPressure
High90 °F (Feb 2, 2:30 PM)100% (Jan 25, 4:00 AM)30.21 "Hg (Jan 25, 4:00 AM)
Low50 °F (Feb 1, 4:30 AM)22% (Feb 6, 6:00 PM)29.50 "Hg (Jan 28, 4:30 PM)
Average67 °F69%29.84 "Hg
* Reported Jan 24 12:00 Noon — Feb 8 12:00 Noon, Melbourne, Weather by CustomWeather, © 2016

Note: Actual official high and low records may vary slightly from our data, if they occured in-between our weather recording intervals... More about our weather records

Advertising

Melbourne Weather History for the Previous 24 Hours

 ConditionsComfort  
Time TempWeatherWind HumidityBarometerVisibility
12:00 PM
Mon, Feb 8
70 °FPartly sunny.9 mph60%30.18 "HgN/A
11:30 AM70 °FPartly sunny.8 mph60%30.21 "HgN/A
11:00 AM70 °FPartly sunny.9 mph60%30.21 "HgN/A
10:30 AM68 °FBroken clouds.9 mph64%30.21 "HgN/A
10:00 AM66 °FOvercast.9 mph73%30.18 "HgN/A
9:30 AM66 °FMore clouds than sun.9 mph73%30.18 "HgN/A
9:00 AM66 °FMore clouds than sun.8 mph78%30.18 "HgN/A
8:30 AM64 °FPartly sunny.8 mph83%30.18 "HgN/A
8:00 AM64 °FPartly sunny.7 mph83%30.15 "HgN/A
7:30 AM64 °FPartly sunny.6 mph83%30.15 "HgN/A
7:00 AM64 °FPartly sunny.6 mph83%30.15 "HgN/A
6:30 AM64 °FPartly cloudy.7 mph83%30.15 "HgN/A
6:00 AM63 °FPartly cloudy.6 mph94%30.15 "HgN/A
5:30 AM63 °FPartly cloudy.3 mph88%30.12 "HgN/A
5:00 AM61 °FPassing clouds.6 mph94%30.12 "HgN/A
4:30 AM61 °FPassing clouds.6 mph94%30.12 "HgN/A
4:00 AM63 °FPassing clouds.6 mph88%30.12 "HgN/A
3:00 AM64 °FPassing clouds.9 mph83%30.12 "HgN/A
2:30 AM64 °FPassing clouds.7 mph88%30.12 "HgN/A
2:00 AM64 °FPassing clouds.8 mph88%30.12 "HgN/A
1:30 AM64 °FPassing clouds.9 mph88%30.12 "HgN/A
1:00 AM66 °FPassing clouds.9 mph83%30.12 "HgN/A
12:30 AM66 °FPassing clouds.9 mph83%30.12 "HgN/A
12:00 AM64 °FPassing clouds.7 mph88%30.12 "HgN/A
11:48 PM
Sun, Feb 7
64 °FPassing clouds.7 mph88%30.12 "HgN/A
11:30 PM64 °FPassing clouds.7 mph88%30.12 "HgN/A
11:00 PM66 °FPassing clouds.7 mph83%30.12 "HgN/A
10:30 PM66 °FPassing clouds.6 mph83%30.12 "HgN/A
10:00 PM68 °FPassing clouds.8 mph78%30.12 "HgN/A
9:00 PM72 °FPassing clouds.8 mph53%30.09 "HgN/A
8:30 PM72 °FClear.10 mph47%30.07 "Hg10 mi
8:00 PM75 °FSunny.15 mph36%30.07 "Hg10 mi
7:30 PM75 °FSunny.16 mph36%30.04 "Hg10 mi
7:00 PM77 °FSunny.17 mph34%30.04 "Hg10 mi
6:30 PM77 °FSunny.18 mph42%30.01 "Hg10 mi
6:00 PM79 °FSunny.17 mph45%30.01 "Hg10 mi
5:00 PM82 °FSunny.16 mph45%30.01 "Hg10 mi
4:00 PM84 °FSunny.15 mph43%29.98 "Hg10 mi
3:30 PM84 °FSunny.15 mph45%29.98 "Hg10 mi
3:00 PM84 °FSunny.16 mph45%29.98 "Hg10 mi
2:30 PM86 °FSunny.14 mph43%30.01 "Hg10 mi
2:00 PM88 °FSunny.8 mph38%30.01 "Hg10 mi
1:00 PM86 °FSunny.10 mph46%30.01 "Hg10 mi
Weather by CustomWeather, © 2016

See weather overviewHow to use our weather pages